Hourly Data Report for October 06, 2016

All times are specified in Local Standard Time (LST). Add 1 hour to adjust for Daylight Saving Time where and when it is observed.

WINNIPEG A CS
MANITOBA

49°55'00.000" N
97°14'58.000" W
238.70 m
502S001
71849
XWG

Download Data

Hourly Data (October 2016)
Hourly Data Report for October 6, 2016
Temp Definition
°C
Dew Point Temp Definition
°C
Rel Hum Definition
%
Wind Dir Definition
10's deg

Wind Spd Definition
km/h
Visibility Definition
km
Stn Press Definition
kPa
Hmdx Definition


Wind Chill Definition


Weather Definition


TIME
00:00 5.4 2.7 83 24 21   97.50     LegendNANA
01:00 4.7 1.3 79 25 26   97.59     LegendNANA
02:00 3.8 0.6 80 24 29   97.69     LegendNANA
03:00 3.7 0.3 79 24 26   97.75     LegendNANA
04:00 3.1 -0.1 80 24 23   97.82     LegendNANA
05:00 3.1 -0.2 78 23 28   97.89     LegendNANA
06:00 2.6 -0.6 80 23 24   97.95     LegendNANA
07:00 2.0 -1.2 79 23 28   97.99     LegendNANA
08:00 2.9 -1.2 75 24 27   98.05     LegendNANA
09:00 3.2 -1.4 72 24 33   98.12     LegendNANA
10:00 4.2 -0.9 69 24 33   98.19     LegendNANA
11:00 4.6 -0.9 68 24 34   98.26     LegendNANA
12:00 4.9 -1.2 65 24 33   98.34     LegendNANA
13:00 5.4 -1.0 63 24 34   98.39     LegendNANA
14:00 5.9 -0.7 63 23 32   98.45     LegendNANA
15:00 5.8 -0.6 64 24 26   98.54     LegendNANA
16:00 5.8 -1.0 62 25 31   98.59     LegendNANA
17:00 5.7 -0.4 65 24 25   98.60     LegendNANA
18:00 5.1 -0.1 69 25 24   98.62     LegendNANA
19:00 4.9 0.3 72 25 15   98.74     LegendNANA
20:00 4.1 0.2 76 26 16   98.74     LegendNANA
21:00 3.3 0.4 81 26 13   98.71     LegendNANA
22:00 3.4 0.4 81 24 14   98.75     LegendNANA
23:00 3.2 0.7 84 23 13   98.74     LegendNANA

Notes on Data Quality.

Legend

  • E = Estimated
  • M = Missing
  • NA = Not Available
  • ‡ = Partner data that is not subject to review by the National Climate Archives
Date modified: